Location: Esp�s Alto
(42.4476°N, 0.5876°E)
Time: 04:30:00
(UTC+00:00)

NOSS 3-2 (C) - Pass Details

Date: 22 October 2019
Orbit: 818 x 1394 km, 63.4° (Epoch: 11 November)

Event Time Altitude Azimuth Distance (km) Brightness Sun altitude
Exits shadow 03:25:53 68° 324° (NW) 1,367 4.0 -32.3°
Maximum altitude 03:27:08 90° 236° (SW) 1,300 3.9 -32.1°
Drops below altitude 10° 03:35:37 10° 147° (SSE) 3,432 6.5 -30.5°
Sets 03:38:35 0° 147° (SSE) 4,428 7.2 -30.0°
